Flag for U.S.A. Weather past 2 weeks in Huntsville, Alabama, U.S.A.

Now
50 °F

Clear.


Feels Like: 49 °F
Forecast: 48 / 68 °F
Wind: 3 mph from North

Location: Huntsville International / Jones Field

Current Time: Apr 27, 2015 at 4:01:15 AM

Latest Report: Apr 27, 2015 at 2:53 AM


Visibility: 8 mi

Pressure: 29.85 "Hg

Humidity: 86%

Dew point: 46 °F

Location of HuntsvilleLocation

Historic Weather in Huntsville — Graph

°F

Huntsville temperature yesterday

Maximum temperature yesterday: 76 °F (at 2:53 PM)
Minimum temperature yesterday: 52 °F (at 11:53 PM)
Average temperature yesterday: 66 °F

Past Weeks' High & Low Weather Summary

 TemperatureHumidityPressure
High80 °F (Apr 12, 1:53 PM)100% (Apr 14, 9:53 PM)30.16 "Hg (Apr 14, 9:53 PM)
Low47 °F (Apr 21, 4:53 AM)25% (Apr 21, 11:53 AM)29.57 "Hg (Apr 25, 6:53 PM)
Average65 °F74%29.93 "Hg
* Reported Apr 12 2:53 AM — Apr 27 2:53 AM, Huntsville, Weather by CustomWeather, © 2015

Note: Actual official high and low records may vary slightly from our data, if they occured in-between our weather recording intervals... More about our weather records

Advertising

Huntsville weather history for previous 24 hours

 ConditionsComfort  
Time TempWeatherWind HumidityBarometerVisibility
2:53 AM
Mon, Apr 27
50 °FClear.3 mph86%29.85 "Hg8 mi
1:53 AM51 °FClear.No wind86%29.85 "Hg8 mi
12:53 AM52 °FClear.3 mph83%29.86 "Hg10 mi
11:53 PM
Sun, Apr 26
52 °FClear.No wind83%29.86 "Hg10 mi
10:53 PM54 °FClear.3 mph80%29.87 "Hg10 mi
9:53 PM56 °FPassing clouds.9 mph75%29.87 "Hg10 mi
8:53 PM57 °FOvercast.14 mph72%29.85 "Hg10 mi
7:53 PM57 °FPartly sunny.13 mph78%29.84 "Hg10 mi
6:53 PM61 °FScattered clouds.12 mph72%29.81 "Hg10 mi
5:53 PM65 °FBroken clouds.13 mph66%29.79 "Hg10 mi
4:53 PM67 °FBroken clouds.14 mph66%29.78 "Hg10 mi
3:53 PM68 °FBroken clouds.16 mph70%29.75 "Hg10 mi
2:53 PM76 °FPartly sunny.12 mph56%29.72 "Hg10 mi
1:53 PM75 °FPartly sunny.12 mph58%29.72 "Hg10 mi
12:53 PM73 °FPartly sunny.10 mph64%29.72 "Hg10 mi
11:53 AM73 °FPartly sunny.8 mph64%29.73 "Hg10 mi
10:53 AM73 °FPartly sunny.6 mph64%29.74 "Hg10 mi
9:53 AM72 °FScattered clouds.7 mph66%29.72 "Hg10 mi
8:53 AM71 °FPassing clouds.7 mph66%29.71 "Hg10 mi
7:53 AM69 °FPassing clouds.5 mph79%29.69 "Hg10 mi
6:53 AM65 °FFog.3 mph94%29.67 "Hg4 mi
6:03 AM66 °FFog.3 mph90%29.67 "Hg4 mi
5:53 AM65 °FFog.3 mph94%29.64 "Hg3 mi
5:04 AM65 °FFog.6 mph94%29.65 "Hg4 mi
4:53 AM67 °FFog.6 mph90%29.62 "Hg5 mi
Weather by CustomWeather, © 2015

See weather overviewHow to use our weather pages